トリトン彗星

157P/Tritton (2010)

English version
Home page
Updated on January 6, 2021

---------------------------------------------------------------------

・ プロフィール

・ 写真集

・ 軌道要素

The following orbital elements are taken from MPC 66922:

Epoch 2010 Feb. 13.0 TT = JDT 2455240.5
T 2010 Feb. 20.5355 TT                                  MPC
q   1.360161             (2000.0)            P               Q
n   0.1565420      Peri.  148.7466      +0.0163750      -0.9938427
a   3.409694       Node   300.1079      +0.8892327      +0.0645863
e   0.601090       Incl.    7.2775      +0.4571621      -0.0900295
P   6.30
From 218 observations 1978-2009, mean residual 0".9.

・ 星図

・ 光度変化

        m1 = 13.5 + 5 logΔ + 12.0 log r

---------------------------------------------------------------------

軌道要素はMPCのEphemerides and Orbital Elementsに掲載されたものです。
星図はステラナビゲータ Ver.8 (アストロアーツ) で作成したものです。
光度グラフはComet for Windowsで作成したものです。

---------------------------------------------------------------------

Copyright(C) Seiichi Yoshida (comet@aerith.net). All rights reserved.